Wind_Speed
27 30 30 29 28 26 24 24 23 22 21 20 19 17 17 17 17 18 19 20 20 19 19 17 16 15 14 12 11 10 9 8 8 9 9 9 9 8 8 8 7 7 6 5 4 4 4 5 9 11 11 13 15 16 19 18 16 17 18 18 18 17 17 17 16 16 15 15 15 15 15 14 14 14 14 13 13 12 12 11 12 12 12 11 10
26 29 30 30 29 29 27 26 25 24 23 22 21 19 18 18 19 19 20 21 21 21 21 20 19 17 16 14 13 12 11 10 10 10 10 10 10 10 9 9 8 8 7 7 6 5 5 6 9 11 11 14 15 16 19 18 16 17 18 18 18 18 17 17 16 16 15 15 15 15 15 14 14 13 13 12 12 12 11 10 10 11 11 10 10
26 28 29 31 31 31 29 28 27 26 25 24 23 21 20 20 20 20 21 21 22 23 23 22 21 19 18 17 15 14 13 12 12 11 11 11 11 11 10 9 9 9 9 8 7 6 6 7 9 11 12 14 16 17 18 19 17 17 18 19 19 18 18 17 16 16 15 15 15 15 15 14 14 13 12 11 11 11 10 9 9 10 10 10 9
26 26 27 31 32 32 31 30 29 28 27 26 25 24 22 21 21 21 22 22 23 24 24 24 23 22 20 19 17 16 15 14 13 12 12 12 12 11 11 10 10 10 10 10 9 8 7 7 10 12 13 15 17 18 19 19 17 17 18 19 19 19 18 18 17 16 16 16 16 15 14 14 13 12 11 10 10 9 9 8 8 9 10 9 8
26 26 26 29 31 32 32 32 31 30 29 28 27 25 24 22 22 22 23 23 24 25 26 26 25 24 22 21 20 19 18 16 15 14 14 13 13 12 12 11 11 11 11 11 10 9 8 9 10 12 14 16 18 19 20 20 18 18 19 19 19 19 19 18 18 17 16 16 16 15 15 14 13 12 11 10 9 8 8 8 8 8 9 9 8
26 26 25 26 30 32 33 33 32 32 31 30 29 27 26 25 23 23 24 24 24 26 26 27 27 26 24 23 22 21 20 18 17 17 17 16 15 14 13 12 12 13 12 12 12 10 10 10 11 13 14 16 19 20 21 21 19 18 19 20 20 20 20 19 18 17 16 16 16 15 15 14 13 12 11 10 9 8 8 8 7 7 8 8 7
25 26 25 25 29 32 34 34 33 33 31 30 29 28 27 26 25 24 25 25 25 26 27 28 28 28 27 25 24 23 22 21 20 19 19 18 17 16 16 14 14 14 14 13 13 11 11 12 12 14 16 16 19 20 21 21 20 19 19 20 20 20 20 20 19 18 17 17 16 16 15 15 13 12 11 10 9 8 8 8 8 7 7 7 6
25 25 26 26 28 30 32 34 34 32 29 28 29 29 29 28 26 25 25 26 26 26 27 28 29 29 29 27 26 25 24 23 23 22 21 21 20 19 18 17 16 16 16 15 14 13 13 13 13 15 17 17 18 21 22 22 21 20 20 21 21 21 21 20 19 18 17 17 17 16 16 15 14 13 11 10 10 9 9 8 8 7 7 6 6
26 25 28 29 29 28 29 32 34 33 30 29 29 30 30 29 28 27 26 27 28 27 27 27 28 30 30 29 28 27 26 26 25 24 23 23 22 21 20 19 19 18 17 16 15 15 14 14 15 15 17 18 19 20 22 23 23 21 21 21 21 21 21 20 20 19 18 18 17 17 16 16 15 13 12 11 11 10 10 9 8 8 7 7 6
27 26 27 30 30 30 29 30 32 33 32 31 30 30 30 30 29 29 28 28 29 28 27 27 28 29 30 30 29 28 28 28 27 25 25 24 24 23 22 22 21 20 19 18 17 16 15 15 16 16 18 19 20 21 23 24 24 22 22 22 22 22 22 21 21 20 20 19 19 18 17 17 16 14 13 13 12 11 11 10 9 8 8 7 6
28 28 29 30 30 30 30 29 29 32 33 32 31 30 30 31 30 30 30 29 30 29 28 28 28 29 30 30 30 29 29 29 28 27 26 26 26 25 24 24 24 22 20 20 19 18 17 16 17 17 18 20 21 22 23 24 25 23 22 23 23 23 23 22 22 21 21 20 20 19 18 18 17 16 15 14 13 13 12 11 10 9 9 8 7
27 30 31 30 29 29 29 28 29 32 33 34 33 32 31 31 31 30 31 30 30 30 30 29 29 29 30 30 30 30 30 30 30 29 28 27 27 27 26 25 25 24 23 21 20 19 18 18 18 17 19 21 22 23 24 25 25 25 23 23 23 23 23 23 23 23 22 22 21 21 20 19 18 17 16 15 15 14 13 12 11 10 10 9 8
25 29 30 30 30 29 28 29 30 31 32 34 34 33 31 31 32 31 31 31 31 32 31 30 29 30 30 31 31 31 31 31 30 30 30 29 29 28 27 27 26 25 25 23 22 21 18 18 20 19 19 22 23 24 25 26 26 26 25 24 24 24 24 24 24 23 23 23 22 22 21 20 19 19 18 17 16 15 14 13 13 12 11 10 10
23 27 28 29 31 30 29 31 31 31 32 34 35 34 33 33 32 31 31 32 32 33 33 32 30 30 31 32 32 32 32 31 31 31 31 30 30 29 28 28 27 26 26 25 24 22 20 19 21 21 21 22 23 24 26 27 26 26 26 25 25 25 24 24 24 24 24 23 23 23 22 22 21 20 19 19 17 16 16 15 14 13 12 12 11
23 25 26 26 29 31 31 32 32 32 32 34 36 36 35 34 34 32 31 32 33 34 34 33 32 31 30 31 32 33 33 32 32 32 32 31 31 30 29 29 28 27 27 27 26 24 22 21 21 22 22 23 24 24 26 27 28 27 27 26 26 25 25 25 25 25 24 24 24 24 23 23 22 22 21 20 19 18 17 16 15 14 14 14 13
24 24 25 25 28 32 31 31 32 33 34 35 35 35 36 35 35 34 32 32 34 35 35 35 33 32 31 31 32 33 33 32 32 32 32 32 32 31 31 30 29 28 28 28 27 25 24 22 22 23 23 23 24 25 26 27 29 29 28 28 27 26 26 25 25 25 25 24 24 24 24 24 24 23 23 22 21 20 19 18 17 16 15 15 15
28 26 25 25 27 31 31 31 31 31 32 33 32 33 36 36 36 35 34 33 34 35 36 36 35 34 32 31 32 32 33 32 33 33 33 33 32 32 32 31 30 29 29 29 28 26 25 23 23 23 24 24 25 25 26 27 29 29 29 29 28 27 27 26 26 26 26 25 25 25 25 25 25 25 24 24 23 22 21 20 19 18 17 17 17
35 30 28 27 28 30 29 30 32 30 30 32 32 33 35 35 37 37 36 35 35 36 36 36 36 36 34 32 32 33 33 33 33 33 34 34 33 33 33 33 32 31 30 29 29 27 26 25 24 24 24 25 26 26 26 27 28 30 30 30 29 29 28 27 27 27 27 27 26 25 26 26 26 26 26 25 25 24 23 22 21 20 20 19 18
44 39 36 33 32 33 31 30 31 31 31 32 33 33 33 34 37 38 38 38 37 36 36 37 37 37 36 34 33 33 33 33 34 34 34 34 34 34 33 33 33 32 32 31 30 28 27 25 24 25 25 26 27 27 26 27 28 30 31 31 30 30 29 29 28 28 28 28 27 26 26 27 27 28 28 27 26 26 25 24 23 23 22 21 21
47 46 44 41 38 37 36 34 31 30 31 31 31 32 33 33 35 38 39 40 40 38 37 37 38 38 37 36 34 33 34 34 34 34 34 35 35 35 34 34 34 34 33 32 31 30 28 25 25 26 26 26 27 28 27 27 28 30 31 32 32 32 31 30 30 29 29 29 29 28 28 27 28 28 29 29 28 28 27 26 26 25 24 24 23
44 46 46 45 44 41 39 37 35 33 32 31 31 32 33 34 34 36 39 41 42 41 38 38 38 38 38 38 36 35 34 34 35 35 35 35 35 35 35 35 35 35 35 34 33 31 29 26 26 26 27 27 27 28 28 27 27 29 30 32 33 33 33 32 32 31 30 30 30 30 29 29 28 29 29 29 30 29 29 28 28 27 27 26 26
41 44 46 47 47 45 42 40 38 36 35 33 32 33 35 36 35 35 38 40 42 42 40 38 38 38 39 39 38 36 35 35 36 36 36 35 35 36 36 36 36 36 36 35 34 32 30 28 27 27 28 28 27 28 29 29 28 28 30 31 33 34 34 34 34 33 32 32 32 32 31 31 30 30 30 30 31 31 31 30 30 29 29 29 29
40 41 44 46 48 48 45 41 39 38 37 36 35 35 36 38 37 36 38 39 41 43 42 40 39 38 39 39 39 38 37 36 36 37 37 36 36 36 36 37 36 36 36 36 36 34 32 29 28 28 28 28 28 28 29 30 30 29 29 31 33 34 34 35 35 35 35 34 34 33 33 33 32 31 31 31 32 32 32 32 32 31 31 31 31
42 39 40 43 46 49 47 42 39 39 38 39 39 38 36 37 37 36 36 38 40 41 42 42 41 40 40 40 40 39 38 37 37 37 37 37 37 36 36 37 37 37 37 37 37 36 33 31 29 29 29 29 29 30 30 31 31 30 30 31 32 34 35 35 36 37 37 37 36 35 35 34 34 34 33 33 33 33 33 33 33 33 33 33 33
45 42 40 41 43 46 47 44 43 42 40 41 41 40 38 37 37 36 35 37 39 40 42 43 43 42 41 41 41 40 39 38 38 38 38 38 38 37 37 37 37 37 38 38 37 37 35 33 31 30 30 30 30 31 31 31 32 32 31 31 31 33 35 35 36 37 38 38 38 37 37 36 36 36 35 35 35 35 35 35 35 34 34 34 34
47 45 42 40 40 43 45 46 47 45 41 41 41 40 39 37 35 35 36 36 38 39 41 43 45 45 42 42 42 41 40 39 39 38 38 39 39 38 38 38 38 38 38 39 38 38 37 35 33 32 32 32 32 33 32 32 32 33 32 31 31 32 34 35 36 37 38 38 39 39 39 38 38 37 37 37 37 37 36 36 36 36 36 36 36
48 47 45 42 40 41 44 46 47 43 41 41 41 40 40 39 37 34 35 36 37 38 40 42 45 47 45 43 42 42 42 41 40 39 39 39 40 40 39 39 39 39 39 40 40 39 39 38 36 34 34 34 34 34 33 33 33 34 34 33 32 33 34 35 36 37 38 38 39 39 40 40 40 39 39 39 39 39 38 38 38 38 37 37 37
50 49 47 45 42 41 43 46 46 43 43 42 42 42 42 42 40 38 37 35 35 36 38 42 43 45 47 46 44 43 43 42 42 41 41 41 41 41 41 40 40 40 40 41 42 41 40 40 39 37 36 36 36 35 35 35 35 36 36 34 33 34 35 35 36 37 37 38 39 39 40 40 41 40 40 40 40 40 40 39 39 39 39 38 38
52 51 49 47 46 43 42 45 46 47 47 45 43 42 42 42 42 42 41 38 36 35 36 40 42 43 46 48 46 45 44 43 44 44 43 42 42 42 41 42 42 42 42 42 43 42 42 41 41 40 38 37 37 37 37 36 36 36 36 35 36 36 36 36 36 37 37 38 39 40 40 40 41 41 41 41 41 41 41 41 41 40 40 40 39
51 52 51 49 48 46 44 45 47 49 50 50 47 41 40 43 43 42 41 40 39 37 36 40 43 43 44 48 48 47 46 46 46 45 45 44 44 43 43 43 43 44 44 44 44 44 44 43 43 43 41 40 39 40 39 38 37 37 36 37 38 38 37 37 37 37 38 38 39 40 40 40 41 42 42 42 42 42 43 42 42 42 42 41 41
51 51 51 50 50 49 47 46 47 49 50 50 50 46 43 45 45 42 37 37 38 37 38 42 43 44 44 45 47 48 48 48 48 47 46 46 46 45 45 45 45 45 46 46 47 46 46 45 45 45 44 43 42 41 39 39 38 37 37 37 39 40 40 39 38 38 39 39 38 39 40 40 41 42 42 42 43 43 44 44 44 43 43 42 42
52 53 52 51 51 50 49 48 48 50 50 50 49 49 49 48 49 46 39 40 40 37 39 42 42 42 43 44 44 46 48 49 49 49 49 48 48 48 48 47 46 47 48 48 49 49 48 47 47 46 46 45 44 42 40 40 39 39 38 38 40 41 41 41 40 40 40 40 39 39 39 40 41 41 42 42 42 43 43 44 43 43 43 42 42
49 52 53 52 52 52 51 51 50 51 51 51 50 51 51 50 51 49 45 47 47 42 43 45 41 38 40 42 43 44 46 48 49 50 50 50 50 50 50 49 49 49 49 50 51 51 50 49 48 48 48 47 46 45 44 43 42 41 41 40 41 41 42 42 42 41 41 41 40 40 40 40 41 41 41 42 42 42 42 43 43 42 42 42 42
45 48 51 52 52 53 53 53 53 53 53 52 52 52 52 51 51 49 46 48 49 47 48 48 43 39 38 38 40 44 45 46 47 48 50 51 51 52 52 51 51 51 52 52 53 53 52 51 50 49 49 48 47 47 48 46 45 44 43 43 43 43 43 43 43 43 43 42 42 41 41 41 41 42 42 42 42 42 42 42 42 42 41 41 41
45 46 48 49 51 52 54 55 55 55 56 55 55 54 53 52 52 52 50 49 49 48 48 50 47 42 40 37 36 43 47 46 46 47 48 50 51 52 54 54 54 54 54 55 55 55 54 53 52 51 50 49 49 49 50 49 48 47 46 46 46 46 45 45 44 45 44 45 44 43 42 42 42 43 43 42 42 42 42 42 42 42 41 41 41
46 46 47 49 49 51 53 55 57 57 58 58 57 56 55 54 53 54 54 54 53 51 51 53 51 46 43 42 40 45 51 49 46 46 47 49 51 53 54 56 57 57 57 57 56 56 56 55 54 54 52 51 50 50 51 51 50 50 49 49 49 48 48 46 46 46 46 46 46 45 44 44 44 44 44 43 43 43 43 42 42 42 42 42 42
46 46 46 48 50 51 51 54 57 58 59 60 60 59 58 57 56 56 56 55 56 57 56 57 58 55 51 49 46 47 51 50 47 47 47 47 50 54 56 57 59 60 60 60 59 58 57 56 56 56 55 53 53 52 52 51 51 52 52 52 52 51 50 49 48 48 48 47 46 46 46 45 45 45 45 44 44 44 44 43 43 42 42 43 43
48 48 47 47 50 52 52 52 55 58 59 60 61 61 61 60 60 61 60 57 57 59 61 61 60 60 58 55 50 48 50 49 49 50 50 49 49 51 54 57 59 61 62 62 62 61 60 59 58 57 56 55 55 54 54 53 53 54 55 55 54 54 53 52 51 50 49 48 47 48 48 47 47 46 46 45 45 45 45 44 44 43 44 44 45
50 50 49 48 49 51 53 53 53 56 59 60 61 62 63 63 63 64 64 62 59 59 62 62 60 59 58 57 54 53 55 55 51 49 50 51 51 52 52 54 57 61 63 63 63 63 63 62 61 59 58 57 56 56 56 56 56 56 56 56 57 57 56 54 53 52 50 49 49 50 50 49 48 47 47 46 46 46 46 46 45 45 45 46 46
50 50 50 50 50 50 52 53 53 54 57 59 61 62 64 67 68 66 66 67 64 61 62 61 60 60 58 56 55 55 57 58 55 51 50 49 50 52 50 50 53 57 60 62 62 62 63 64 63 62 60 59 58 57 57 58 59 59 58 58 58 57 57 57 56 55 54 53 52 52 52 51 50 49 49 48 48 47 47 47 47 47 46 47 47
52 52 51 51 51 51 51 53 54 54 55 58 60 63 64 67 71 69 67 68 68 66 64 62 62 62 62 60 58 56 54 54 53 53 53 52 52 51 48 48 51 52 54 57 59 60 61 63 65 65 63 62 60 59 58 59 60 61 61 60 59 59 59 59 59 58 57 56 55 55 54 54 53 52 52 51 51 50 50 49 49 49 49 49 49
53 53 53 53 52 52 52 53 54 54 55 56 59 63 66 68 71 73 70 66 69 71 67 65 66 66 65 65 63 61 59 54 50 51 54 56 57 55 51 50 51 51 51 53 56 58 58 60 63 66 66 65 63 61 60 61 61 61 61 62 62 63 62 62 61 60 59 58 58 57 57 57 56 56 56 55 54 53 52 52 51 51 51 51 52
51 53 54 54 55 55 54 54 55 55 56 56 57 61 66 69 70 73 73 67 68 74 71 67 70 70 67 68 67 65 65 60 53 48 49 53 59 59 56 54 53 54 54 53 53 55 54 54 57 61 64 65 65 64 62 63 63 62 63 65 66 65 65 64 63 61 60 60 60 60 60 60 59 59 58 58 56 56 55 54 54 54 54 54 54
48 50 52 54 55 56 57 57 57 57 57 57 58 59 63 68 69 71 73 69 66 72 75 69 70 74 71 68 69 67 67 66 60 52 47 49 55 57 57 57 56 57 58 56 54 54 54 53 53 54 57 59 62 64 65 64 64 65 66 66 66 67 67 66 65 64 64 64 64 64 63 63 62 61 60 59 59 59 58 57 57 57 57 57 57
48 48 49 51 53 55 57 58 59 59 59 58 59 59 60 64 68 70 71 70 67 69 75 73 69 73 75 71 68 67 67 68 66 62 57 55 55 54 54 56 55 55 58 59 58 56 57 57 56 54 53 53 55 59 61 63 63 66 68 68 69 70 70 68 67 67 68 68 68 67 66 65 64 63 63 62 61 61 61 60 60 59 59 60 60
49 49 48 49 50 52 54 56 58 59 61 61 60 60 61 62 66 69 70 70 68 66 72 75 71 70 74 74 70 67 66 67 68 68 65 61 58 54 54 57 58 56 56 59 61 61 59 59 57 56 56 55 56 57 57 57 60 62 65 68 70 71 72 72 70 70 70 70 69 69 68 68 67 67 66 65 64 63 63 62 62 62 62 62 62
51 50 50 49 49 50 51 53 55 56 59 61 62 62 62 63 64 68 70 69 69 67 69 73 72 68 71 74 73 70 67 65 66 68 69 64 56 52 53 56 59 61 60 60 62 64 63 62 58 56 57 59 59 59 58 56 56 56 58 61 63 65 67 70 71 71 70 69 68 67 69 69 69 69 69 68 67 66 66 66 65 64 64 64 64
54 53 52 51 51 51 51 52 52 54 56 58 60 62 63 64 64 66 68 69 69 68 70 72 71 68 68 70 71 71 70 68 67 67 69 67 60 56 56 56 56 59 62 62 61 63 65 66 64 60 59 60 61 62 62 60 59 59 60 61 62 62 64 67 70 70 70 70 70 70 71 71 71 70 70 69 68 68 69 69 68 68 67 67 67
56 56 55 54 53 53 52 52 52 53 54 55 57 59 60 62 64 65 67 69 70 68 70 73 73 69 68 69 68 69 70 71 71 70 69 69 65 61 61 61 58 57 59 62 62 63 64 65 68 67 64 63 64 66 66 63 62 64 65 66 66 67 68 70 72 72 72 72 73 74 74 73 72 72 72 72 71 70 70 70 70 70 70 69 68
58 58 58 57 56 56 55 54 54 54 54 55 55 57 58 60 61 63 65 68 70 70 69 71 74 72 69 70 69 68 69 70 71 72 71 71 69 66 63 64 64 60 59 61 64 66 66 65 68 71 71 68 67 69 68 67 67 69 69 68 68 68 69 70 71 72 73 73 72 71 71 71 71 71 71 71 71 70 70 70 70 70 70 69 69
59 59 59 59 59 58 58 57 56 56 56 56 56 56 57 58 59 61 63 65 68 71 70 69 72 72 70 71 71 70 69 70 70 71 71 71 71 70 68 66 66 66 64 62 63 65 67 68 70 71 72 70 69 69 66 65 67 71 73 71 69 69 69 69 70 71 73 75 73 70 69 70 70 68 66 65 66 67 67 67 67 67 68 68 68
Wind_Direction
241 244 242 238 238 236 233 233 232 230 229 231 232 228 226 227 227 224 220 223 227 228 227 230 236 239 236 231 222 216 216 214 214 219 223 228 233 237 245 252 256 262 261 256 247 246 243 226 203 195 193 189 189 190 189 188 188 189 191 193 193 191 189 186 183 183 184 184 184 185 184 183 180 175 170 165 160 155 153 149 143 139 141 144 141
243 243 244 240 238 236 233 233 233 231 229 229 230 229 226 226 227 226 221 221 226 229 228 229 232 237 238 235 230 224 221 219 221 225 229 234 241 243 246 251 255 261 262 260 253 245 241 230 210 198 195 192 190 191 193 192 191 192 193 195 196 196 194 190 187 186 187 187 188 189 188 186 183 178 173 168 163 158 155 151 146 143 144 146 143
245 241 243 241 239 237 234 234 233 231 230 229 229 229 227 225 227 227 223 221 224 229 230 230 230 233 238 238 235 230 226 224 226 231 235 239 245 249 249 250 254 259 263 262 258 249 241 234 217 203 197 196 193 194 196 196 196 196 196 197 198 199 198 195 191 190 190 191 191 192 192 190 186 181 177 172 167 162 158 155 151 148 148 149 145
245 240 239 239 239 239 236 235 234 232 230 229 228 229 228 225 226 228 226 222 222 227 231 232 231 232 235 239 237 234 232 229 231 236 239 241 245 250 251 252 254 258 263 265 261 254 244 236 223 209 199 197 196 196 197 198 200 199 199 200 200 201 201 199 196 194 194 195 195 195 195 193 190 185 182 178 175 170 165 162 158 154 152 152 149
243 238 237 238 239 240 238 236 235 233 231 230 229 228 229 227 226 228 228 224 222 225 229 233 234 233 234 238 239 237 236 234 233 236 240 242 244 248 253 254 256 257 260 265 263 256 247 238 227 216 203 197 198 197 197 200 203 202 202 202 202 203 204 203 200 198 198 199 198 199 199 198 195 192 189 187 186 181 176 173 168 162 157 156 154
241 237 237 239 240 239 239 238 236 234 231 229 229 228 229 228 226 227 229 227 224 224 227 231 234 236 234 235 238 240 238 236 233 236 241 243 245 249 254 257 258 259 259 262 262 257 248 239 229 220 210 199 198 198 198 201 204 204 204 204 204 205 207 206 204 202 202 203 203 203 203 202 200 198 197 195 196 193 188 184 180 172 166 163 161
238 236 237 238 240 241 239 238 237 236 233 232 231 230 229 229 228 227 230 230 227 225 226 230 234 236 236 235 235 239 240 237 235 236 241 245 248 250 254 258 261 262 261 259 259 259 252 243 233 224 216 205 199 200 201 202 205 206 207 207 207 207 209 209 207 206 206 207 207 207 208 207 206 204 204 205 206 205 202 197 192 185 178 173 171
235 235 237 238 239 242 241 238 238 238 236 237 236 235 233 231 230 229 230 231 229 226 226 229 233 235 237 237 234 236 239 239 238 237 240 245 249 251 253 257 262 264 263 261 260 261 256 246 238 228 221 213 204 201 203 205 206 208 208 208 209 210 211 211 210 209 210 212 212 212 212 212 211 210 212 215 217 216 213 209 202 195 190 186 183
234 234 238 240 240 242 244 241 238 238 236 236 236 236 236 233 231 231 231 232 232 228 227 229 233 236 237 238 237 236 238 239 240 239 239 243 247 251 253 255 260 264 266 265 262 260 257 249 241 233 225 220 211 205 205 207 209 209 209 210 211 212 213 213 214 213 213 215 216 216 216 217 216 217 220 223 225 224 221 217 211 205 201 199 197
234 233 237 239 241 243 247 246 242 240 237 236 236 235 235 235 232 231 232 233 234 230 227 228 232 236 238 238 238 237 237 239 240 240 240 242 245 250 252 253 258 262 267 267 264 260 258 253 244 235 229 226 219 210 208 209 211 211 210 211 212 213 214 215 216 217 217 218 220 220 220 221 222 223 226 230 232 231 227 223 219 215 211 210 210
237 233 235 239 241 242 247 248 246 243 240 239 238 236 235 235 233 231 233 234 234 233 228 227 230 234 238 239 239 239 238 238 240 240 240 241 244 248 250 252 256 260 265 266 265 261 259 258 249 236 230 230 226 217 211 211 213 214 212 212 213 214 215 216 217 219 220 221 222 223 224 225 226 228 231 234 236 235 232 228 226 223 221 219 221
243 235 235 240 242 241 243 246 247 246 243 240 240 239 236 236 235 232 232 234 235 235 232 227 228 231 236 239 240 240 239 239 239 240 240 241 243 246 249 251 255 258 261 265 266 263 259 260 255 241 232 231 231 223 215 213 215 216 215 214 215 215 216 217 218 219 222 223 224 225 227 228 229 231 234 238 239 237 235 234 232 229 227 228 232
244 240 236 239 241 242 243 246 247 246 244 241 241 242 240 238 237 235 232 234 236 236 234 230 227 228 233 237 239 240 240 240 239 240 240 240 241 243 246 249 253 255 258 263 266 265 259 259 258 248 235 230 231 229 221 216 217 218 218 216 216 217 218 219 220 221 224 225 226 227 229 230 232 234 237 241 242 241 239 238 237 234 233 234 238
242 242 241 238 238 241 244 246 249 249 245 240 240 241 241 239 237 236 234 234 236 237 236 233 228 227 230 234 236 238 240 240 240 240 240 240 241 242 244 247 250 253 256 260 264 266 262 257 257 252 240 230 229 231 226 220 219 221 220 219 218 219 219 221 222 223 226 228 228 228 230 232 233 236 239 242 245 245 244 243 240 238 237 238 241
239 241 244 242 236 237 242 245 246 247 244 238 237 239 239 239 238 236 235 234 235 237 236 234 231 228 229 232 234 236 238 239 239 240 240 240 240 240 242 245 248 250 253 256 261 265 264 258 257 255 246 235 229 230 229 224 222 223 223 222 221 221 221 222 223 225 228 230 230 230 231 232 234 237 240 242 246 248 248 246 244 243 241 242 244
236 238 243 243 237 236 240 243 243 242 239 234 232 237 239 239 239 236 234 234 234 236 237 236 233 230 229 231 234 234 236 238 239 239 239 239 240 239 240 242 244 247 250 254 259 262 263 259 257 256 251 242 233 229 229 227 225 225 225 225 224 224 224 224 225 227 230 232 233 232 232 233 235 237 240 243 246 249 250 250 249 248 247 246 247
236 237 240 242 241 238 239 243 245 244 241 236 232 236 239 239 239 237 234 234 235 235 236 236 235 232 230 231 234 234 235 237 238 238 238 238 239 239 239 240 242 244 247 251 256 260 262 260 257 257 254 249 240 232 229 229 228 227 227 226 226 226 226 226 226 228 232 235 236 235 234 234 236 238 240 243 246 249 251 252 252 252 251 251 251
238 237 238 241 244 245 244 243 245 247 244 242 237 235 239 240 240 239 236 234 235 235 235 236 236 234 231 230 232 234 235 236 238 238 239 238 237 239 240 241 241 242 244 248 253 257 260 259 257 256 255 252 245 237 231 230 231 229 229 228 227 228 228 228 228 229 232 236 238 239 237 236 237 238 240 243 245 248 251 253 254 254 254 255 256
242 241 242 243 245 249 251 249 246 246 245 244 241 239 242 244 242 241 238 236 235 235 235 235 236 235 233 231 231 233 234 235 237 238 238 239 238 237 239 241 242 242 244 246 249 254 257 258 257 255 254 253 248 242 235 232 232 232 232 230 229 228 229 230 230 230 232 236 239 241 241 239 239 239 241 243 245 247 250 253 254 255 257 258 260
247 246 247 247 247 249 253 255 254 250 247 246 243 242 245 247 245 243 241 238 236 235 235 235 236 236 235 233 232 232 234 234 235 237 238 239 240 239 239 240 242 243 244 245 247 250 253 255 255 255 254 254 251 246 239 235 233 234 234 232 231 229 229 230 231 232 233 236 240 242 243 242 241 241 242 244 245 247 250 252 254 256 258 260 261
250 249 248 249 249 249 252 254 256 254 252 250 245 243 245 247 247 245 243 241 237 235 234 235 236 236 237 236 233 232 233 234 234 236 237 239 240 240 240 240 241 243 244 246 247 248 250 252 253 253 255 255 253 250 244 239 236 236 237 236 233 231 231 231 232 233 234 235 239 242 244 245 245 244 244 245 246 248 250 252 254 256 258 260 262
251 251 250 250 250 251 252 253 256 255 254 253 250 246 247 248 248 247 245 243 241 237 234 234 236 236 237 238 236 234 233 233 234 235 236 238 239 241 241 242 242 243 244 245 246 246 247 248 250 251 253 255 255 253 248 243 239 237 238 239 237 235 233 232 233 234 235 236 238 242 244 246 247 248 248 247 248 249 250 252 253 255 257 259 262
252 251 251 251 252 252 252 253 255 255 256 256 254 251 249 249 249 249 247 245 243 240 236 235 235 236 236 238 237 236 234 234 234 234 235 237 238 240 242 243 243 243 244 245 245 245 245 245 247 248 250 253 255 254 251 246 242 240 239 240 240 238 236 234 234 235 235 236 238 241 244 246 248 249 250 250 250 250 251 252 253 255 257 259 261
252 251 250 250 251 253 253 251 251 253 255 256 255 253 252 251 248 246 246 247 247 244 240 237 236 235 235 237 238 237 235 235 236 236 235 235 237 239 241 243 244 244 244 244 245 245 244 243 244 246 248 250 252 253 252 249 245 243 241 241 241 241 239 237 236 236 236 237 238 240 243 245 247 249 251 252 252 253 253 254 254 256 257 259 261
250 251 250 249 249 251 252 251 250 250 252 253 253 253 252 251 247 245 246 247 248 246 243 240 237 236 235 235 237 237 236 235 236 237 237 236 236 237 239 241 243 244 244 244 244 245 244 242 241 243 245 247 249 251 252 250 247 245 244 242 242 243 242 241 239 238 238 238 239 240 242 244 247 249 251 252 253 254 255 256 256 257 258 259 261
248 249 249 248 246 247 250 250 250 251 251 251 251 251 249 247 245 245 245 245 247 247 245 242 239 237 236 235 236 237 237 236 236 237 238 238 238 237 238 240 241 243 244 245 244 244 244 242 240 240 242 243 245 248 250 250 248 246 245 244 243 243 243 242 242 241 240 240 240 241 242 243 245 248 250 252 253 255 256 257 258 258 259 260 262
245 246 247 246 244 243 246 248 249 248 249 250 249 249 247 245 245 245 245 245 246 248 248 245 241 238 237 236 236 237 237 236 237 237 238 239 239 239 239 239 241 242 243 245 245 243 243 242 240 238 240 241 243 246 248 249 248 246 244 244 245 244 243 242 242 243 242 241 241 242 242 243 245 247 249 251 253 254 256 257 258 259 260 261 262
244 244 245 245 243 240 242 245 246 242 243 247 248 247 247 246 247 248 249 250 250 250 249 248 244 241 239 238 237 236 237 237 237 237 238 238 239 239 240 240 241 241 242 243 244 244 243 243 241 239 239 240 242 244 245 247 248 247 245 244 245 245 244 242 242 243 243 243 242 243 243 244 245 247 248 250 252 253 255 256 258 259 260 261 262
243 243 242 242 241 239 238 241 243 241 238 240 244 247 250 250 249 251 251 253 255 255 254 250 246 243 241 239 238 237 238 238 237 238 238 239 239 239 239 240 241 242 242 242 244 244 243 242 242 240 238 239 241 243 244 244 246 247 247 245 244 244 244 242 242 242 243 244 243 243 244 245 246 246 248 249 251 252 254 256 257 259 260 261 262
242 242 241 240 239 238 236 236 239 241 238 237 240 244 249 253 251 250 251 253 255 257 259 254 246 242 241 238 238 238 237 238 238 238 239 239 240 239 239 240 241 242 242 242 242 243 242 242 242 241 239 239 240 241 242 243 244 245 246 246 246 245 244 243 242 241 242 243 244 244 244 245 246 247 248 249 250 252 253 255 257 258 260 261 262
241 241 240 239 238 237 235 233 235 238 239 237 236 236 239 246 248 246 247 250 253 255 259 257 247 241 240 238 238 239 238 238 239 240 239 239 240 240 240 240 240 242 243 243 243 242 242 241 241 241 240 239 239 241 243 244 244 244 244 245 246 247 246 244 242 241 241 241 242 244 244 245 246 247 248 249 250 252 253 254 255 257 259 260 262
241 240 240 239 237 237 235 232 231 234 237 236 235 233 232 238 244 244 242 244 247 245 245 250 249 241 239 239 240 241 240 239 239 241 241 240 240 240 240 240 240 241 242 243 244 243 242 241 241 241 241 240 241 242 243 244 245 244 243 243 244 246 247 246 245 244 242 241 241 242 244 245 246 247 248 249 251 252 253 254 255 256 257 259 261
242 241 241 241 239 237 236 233 230 230 232 234 234 233 231 234 241 244 243 245 246 240 236 243 248 243 240 240 241 242 242 240 240 241 242 241 241 241 241 241 240 240 241 243 244 244 243 243 242 242 242 241 241 242 242 242 244 244 243 242 243 244 245 246 247 247 245 244 242 241 242 244 245 246 247 248 250 251 253 254 255 256 257 258 260
244 243 242 243 242 239 236 234 231 229 229 230 232 232 231 233 238 241 241 243 244 242 239 241 244 242 241 242 245 246 244 241 241 242 244 244 243 242 241 241 240 240 241 242 243 244 244 244 243 243 243 243 241 242 242 241 242 244 244 243 243 243 243 244 245 247 247 247 245 243 242 243 244 246 246 247 248 249 251 252 254 255 257 258 259
245 245 244 244 244 242 239 236 234 231 229 228 229 231 230 231 235 237 237 236 237 239 239 241 243 241 240 241 243 248 247 243 242 243 246 247 246 245 243 242 241 240 240 241 242 244 244 244 244 243 243 244 243 242 243 243 242 242 243 243 243 244 244 243 244 245 246 247 247 246 245 245 245 246 247 248 248 249 250 251 253 254 255 257 258
245 246 245 244 244 244 241 238 236 234 231 228 228 229 228 228 231 232 232 232 233 236 238 240 243 242 241 239 239 243 244 242 243 247 248 248 248 247 245 244 243 242 241 241 241 243 244 244 243 243 243 243 243 243 243 244 243 243 243 243 243 243 244 244 244 244 245 246 247 248 247 247 247 247 247 248 249 250 250 251 252 253 255 255 256
244 245 246 246 245 245 244 242 238 236 235 231 229 229 228 227 227 227 228 230 232 235 237 240 243 243 243 242 245 246 240 236 240 247 249 247 247 247 246 245 244 243 242 241 241 241 243 243 243 243 243 243 243 243 243 243 244 244 244 244 244 244 244 244 245 245 245 246 247 248 248 248 248 248 249 249 249 250 251 252 252 253 254 255 256
245 246 248 248 247 246 246 245 242 239 238 235 232 229 229 227 226 226 227 229 231 233 237 240 242 243 243 243 246 247 243 240 238 239 245 246 245 246 247 247 245 244 244 242 241 241 241 242 243 243 243 243 244 244 244 244 243 243 244 244 244 244 244 244 244 245 246 247 248 249 249 249 248 249 249 250 250 251 252 253 253 254 254 255 256
246 246 247 248 249 248 246 246 246 243 240 239 236 232 230 228 228 229 228 230 230 232 236 239 240 242 242 241 242 243 247 249 243 237 239 244 246 247 248 249 247 246 246 244 243 241 241 241 241 243 243 243 243 244 245 245 244 243 243 244 244 245 245 245 245 245 246 247 248 249 250 250 250 250 250 251 251 252 252 253 253 254 254 255 257
246 246 246 247 248 249 248 247 247 246 243 241 239 237 233 230 232 233 232 232 231 231 235 237 239 239 239 239 238 240 244 248 245 239 235 237 243 247 247 247 246 245 245 245 245 244 243 242 241 241 243 243 243 243 244 245 246 245 245 244 244 245 246 246 246 245 245 245 246 248 250 251 252 252 251 251 251 252 252 253 254 254 255 256 258
246 246 246 246 247 248 248 248 247 247 245 242 240 239 238 235 236 239 237 235 233 233 235 236 236 238 238 237 235 236 240 244 244 241 239 238 240 242 242 243 241 239 241 243 244 245 246 245 242 241 242 243 244 244 244 245 246 247 247 247 247 246 246 246 246 245 245 245 245 246 247 249 250 251 252 252 252 252 252 253 254 255 256 257 258
246 246 246 246 247 248 248 248 248 248 247 245 242 239 240 239 239 242 243 240 235 235 237 236 236 238 238 237 237 234 236 242 243 242 244 244 245 242 237 237 237 233 236 240 242 243 245 246 244 242 241 242 243 244 245 245 246 247 248 248 247 247 247 247 247 247 247 247 247 247 246 247 248 249 250 251 251 252 252 254 254 256 257 258 259
246 246 246 246 246 247 248 248 248 249 248 247 245 241 240 241 242 243 246 245 238 236 240 238 237 241 242 239 238 237 236 239 242 244 246 246 246 243 236 234 235 234 233 235 239 241 242 244 245 244 244 244 244 244 245 247 247 248 248 248 248 249 249 249 249 249 249 249 248 248 247 247 247 247 248 250 251 252 252 253 254 255 256 257 258
247 246 246 245 246 246 247 248 248 248 249 248 248 246 243 243 244 244 246 248 244 238 241 243 239 242 246 243 240 239 237 237 240 242 244 244 243 243 240 237 236 235 234 231 233 237 238 238 240 242 244 245 245 245 246 247 247 248 249 250 250 250 251 251 251 250 250 250 249 248 248 248 248 248 249 249 250 251 252 252 253 254 255 256 257
248 247 246 245 245 245 246 247 247 248 248 248 248 248 247 245 245 246 246 248 248 242 242 246 244 241 245 248 244 241 238 237 238 239 239 241 244 246 246 244 241 239 237 233 232 234 235 234 236 238 239 242 245 245 246 246 246 248 250 251 252 251 251 250 251 251 250 250 250 250 250 250 251 251 251 251 251 252 252 252 253 254 255 256 257
249 248 248 247 246 246 246 247 247 248 248 249 248 248 248 247 247 248 249 249 249 246 243 247 249 245 244 249 249 246 242 238 238 239 240 241 245 248 248 246 247 246 241 237 234 232 233 233 234 236 237 237 240 242 243 245 246 248 250 251 252 252 252 251 251 251 252 252 252 252 253 253 252 252 252 252 252 253 254 254 254 255 255 256 258
250 249 249 249 248 247 247 247 247 248 248 248 249 249 249 249 248 249 251 251 250 249 246 248 252 251 247 248 250 250 248 243 239 239 241 244 245 246 246 243 244 246 244 240 237 234 233 233 232 232 234 236 237 237 237 239 242 245 246 247 248 249 251 251 251 252 253 254 254 254 254 254 253 252 253 253 254 254 255 255 256 256 257 258 259
251 251 250 250 249 249 248 248 248 248 248 248 249 249 249 249 249 249 251 253 253 251 249 250 253 254 252 250 249 249 249 249 246 242 241 244 245 242 241 242 243 245 244 242 240 238 238 238 233 229 232 236 238 237 235 235 235 237 239 242 244 245 247 250 251 252 253 255 256 256 255 254 254 254 254 254 254 254 255 256 257 258 258 259 260
251 251 251 251 250 250 249 249 249 249 249 249 249 250 250 250 250 250 250 252 254 253 251 251 254 255 255 254 252 250 249 249 249 248 245 245 246 244 240 241 243 244 245 243 241 239 240 240 236 232 234 239 241 241 240 237 235 235 236 240 244 246 248 250 252 254 255 255 256 257 257 256 256 256 256 255 254 254 254 256 257 258 259 259 260
251 251 251 251 251 251 250 250 250 250 250 250 250 250 250 250 250 250 250 251 252 254 253 252 255 256 255 255 255 254 252 251 251 251 250 248 248 248 245 242 241 241 242 244 243 239 239 239 236 234 236 240 242 243 241 239 238 237 238 241 244 247 248 249 252 255 257 257 257 258 259 258 258 258 258 258 258 256 256 257 258 258 259 259 260
251 251 251 251 251 251 251 251 250 250 250 250 251 251 251 251 251 251 251 251 251 253 254 253 254 256 256 255 255 256 255 254 254 253 253 252 251 250 250 248 244 240 239 242 242 239 237 237 235 235 237 238 239 237 236 238 240 241 241 244 246 247 248 249 251 253 255 256 256 258 259 259 258 258 258 260 260 259 258 259 259 258 259 259 260
Height
5844 5844 5845 5847 5847 5849 5850 5851 5852 5853 5854 5854 5855 5855 5855 5856 5857 5858 5859 5860 5861 5861 5862 5862 5863 5863 5864 5864 5864 5864 5865 5865 5865 5865 5866 5866 5866 5866 5867 5867 5867 5867 5867 5867 5866 5866 5866 5867 5867 5867 5868 5868 5869 5870 5872 5873 5874 5875 5876 5877 5879 5879 5880 5880 5881 5882 5882 5883 5883 5884 5884 5884 5885 5885 5886 5886 5886 5886 5887 5887 5887 5887 5887 5888 5888
5842 5842 5843 5845 5846 5846 5848 5849 5850 5851 5852 5852 5853 5854 5854 5854 5855 5856 5857 5858 5859 5860 5861 5861 5862 5862 5863 5863 5864 5864 5864 5865 5865 5865 5865 5866 5866 5866 5866 5866 5866 5867 5867 5866 5866 5866 5866 5866 5867 5867 5867 5868 5869 5870 5871 5872 5873 5874 5876 5877 5878 5879 5880 5880 5881 5882 5882 5883 5883 5884 5884 5884 5885 5885 5885 5886 5886 5886 5887 5887 5887 5887 5887 5888 5888
5840 5841 5842 5842 5843 5844 5846 5847 5848 5849 5850 5851 5851 5852 5852 5853 5854 5855 5856 5857 5858 5859 5860 5860 5861 5862 5862 5863 5863 5863 5864 5864 5864 5865 5865 5865 5865 5865 5866 5866 5866 5866 5866 5866 5866 5866 5866 5866 5866 5867 5867 5868 5869 5870 5871 5872 5873 5874 5875 5877 5878 5879 5880 5880 5881 5882 5882 5883 5883 5884 5884 5884 5885 5885 5885 5886 5886 5886 5887 5887 5887 5887 5887 5888 5888
5837 5839 5840 5840 5841 5842 5843 5844 5845 5847 5847 5848 5849 5850 5851 5851 5852 5853 5854 5855 5856 5857 5858 5859 5860 5860 5861 5862 5862 5863 5863 5864 5864 5864 5865 5865 5865 5865 5865 5865 5865 5865 5865 5865 5865 5865 5866 5866 5866 5867 5867 5868 5869 5869 5871 5872 5873 5874 5875 5876 5877 5878 5879 5880 5881 5881 5882 5883 5883 5884 5884 5884 5885 5885 5885 5885 5886 5886 5886 5886 5887 5887 5887 5888 5888
5836 5837 5838 5838 5839 5840 5841 5842 5843 5844 5845 5846 5847 5848 5849 5850 5851 5852 5852 5853 5854 5855 5857 5858 5858 5859 5860 5861 5862 5862 5862 5863 5864 5864 5864 5864 5864 5864 5864 5865 5865 5865 5865 5865 5865 5865 5866 5866 5866 5866 5867 5867 5868 5869 5870 5871 5872 5873 5874 5875 5877 5878 5878 5879 5880 5881 5882 5882 5883 5883 5884 5884 5885 5885 5885 5885 5885 5886 5886 5886 5886 5887 5887 5887 5887
5834 5835 5836 5837 5837 5837 5838 5839 5840 5841 5842 5843 5845 5846 5847 5848 5849 5850 5851 5852 5852 5853 5855 5856 5857 5858 5859 5860 5860 5861 5862 5863 5863 5863 5863 5864 5864 5864 5864 5864 5864 5864 5865 5865 5865 5865 5865 5866 5866 5866 5866 5867 5868 5869 5870 5870 5871 5872 5873 5875 5876 5877 5878 5879 5880 5880 5881 5882 5883 5883 5884 5884 5884 5884 5885 5885 5885 5885 5886 5886 5886 5886 5886 5887 5887
5832 5833 5834 5835 5835 5835 5836 5837 5838 5838 5840 5842 5844 5845 5845 5846 5847 5848 5850 5850 5850 5851 5852 5854 5855 5856 5857 5858 5859 5860 5860 5861 5862 5862 5862 5863 5863 5863 5863 5863 5863 5864 5864 5864 5864 5865 5865 5865 5866 5866 5866 5866 5867 5868 5869 5870 5870 5871 5873 5874 5875 5876 5877 5878 5879 5880 5881 5881 5882 5883 5883 5884 5884 5884 5884 5884 5885 5885 5885 5885 5886 5886 5886 5886 5886
5830 5831 5831 5832 5832 5833 5834 5835 5835 5837 5841 5842 5843 5844 5845 5845 5846 5847 5848 5849 5849 5849 5850 5852 5853 5854 5855 5857 5858 5858 5859 5860 5860 5861 5861 5862 5862 5862 5862 5862 5863 5863 5863 5863 5864 5864 5864 5865 5865 5866 5866 5866 5866 5867 5868 5869 5870 5871 5872 5873 5874 5875 5876 5877 5878 5879 5880 5881 5882 5882 5883 5883 5883 5883 5884 5884 5884 5884 5885 5885 5885 5885 5885 5886 5886
5829 5830 5830 5830 5830 5831 5832 5833 5834 5836 5839 5839 5840 5842 5843 5844 5845 5845 5846 5847 5847 5848 5848 5850 5851 5852 5854 5855 5856 5857 5858 5858 5859 5860 5860 5861 5861 5861 5861 5861 5861 5862 5862 5862 5863 5863 5864 5864 5864 5865 5866 5866 5866 5866 5867 5868 5869 5870 5871 5872 5873 5874 5876 5877 5878 5878 5879 5880 5881 5881 5882 5882 5883 5883 5883 5883 5883 5884 5884 5884 5884 5885 5885 5885 5885
5826 5827 5827 5828 5828 5829 5830 5831 5833 5835 5836 5836 5837 5839 5841 5842 5843 5844 5844 5845 5846 5846 5847 5848 5849 5850 5852 5853 5854 5855 5856 5857 5857 5858 5859 5859 5859 5860 5860 5860 5860 5861 5861 5861 5862 5862 5863 5863 5863 5864 5865 5865 5866 5866 5867 5868 5868 5869 5870 5871 5872 5873 5875 5876 5877 5877 5878 5879 5880 5880 5881 5882 5882 5882 5882 5882 5883 5883 5883 5883 5884 5884 5884 5884 5884
5824 5824 5825 5825 5826 5829 5829 5830 5831 5833 5834 5835 5836 5837 5838 5839 5840 5841 5842 5843 5845 5845 5845 5846 5847 5848 5850 5851 5852 5853 5854 5855 5856 5856 5857 5857 5858 5858 5859 5859 5859 5860 5860 5860 5861 5861 5862 5862 5862 5863 5863 5864 5865 5866 5866 5867 5868 5868 5869 5870 5871 5872 5873 5874 5876 5876 5877 5878 5879 5879 5880 5881 5881 5881 5881 5882 5882 5882 5882 5883 5883 5883 5883 5883 5883
5821 5822 5823 5823 5825 5827 5828 5829 5830 5830 5832 5833 5834 5835 5836 5837 5838 5839 5840 5841 5843 5844 5844 5844 5844 5846 5847 5849 5850 5851 5852 5853 5854 5854 5855 5855 5856 5856 5857 5857 5858 5858 5859 5859 5859 5860 5861 5861 5861 5862 5862 5863 5864 5865 5865 5866 5867 5868 5868 5869 5869 5870 5871 5873 5874 5875 5876 5877 5878 5878 5879 5880 5880 5880 5880 5881 5881 5881 5881 5882 5882 5882 5882 5882 5882
5819 5820 5821 5822 5823 5825 5827 5827 5827 5828 5829 5830 5832 5833 5833 5834 5836 5837 5838 5839 5840 5842 5842 5842 5842 5843 5845 5846 5847 5848 5849 5850 5852 5852 5853 5853 5854 5855 5855 5856 5856 5857 5858 5858 5858 5858 5860 5860 5860 5860 5861 5862 5863 5864 5865 5865 5866 5867 5867 5868 5868 5869 5870 5871 5873 5874 5875 5876 5876 5877 5878 5878 5879 5879 5879 5880 5880 5880 5880 5881 5881 5881 5881 5881 5882
5817 5818 5819 5820 5822 5823 5824 5825 5825 5825 5826 5828 5829 5830 5831 5832 5833 5835 5836 5837 5838 5839 5840 5840 5840 5841 5842 5844 5845 5846 5847 5848 5849 5850 5851 5851 5852 5853 5853 5854 5855 5855 5856 5857 5857 5857 5858 5859 5859 5859 5860 5860 5861 5862 5863 5864 5865 5866 5866 5867 5867 5868 5869 5870 5871 5873 5874 5874 5875 5876 5877 5877 5878 5878 5878 5879 5879 5879 5879 5880 5880 5880 5880 5880 5881
5815 5816 5817 5819 5820 5821 5821 5822 5822 5822 5823 5824 5825 5826 5827 5829 5830 5832 5834 5834 5835 5836 5837 5838 5838 5839 5840 5841 5842 5843 5844 5845 5847 5848 5849 5849 5850 5851 5851 5852 5853 5854 5854 5855 5855 5855 5856 5857 5858 5858 5858 5859 5859 5860 5862 5863 5864 5865 5865 5866 5866 5867 5868 5869 5870 5871 5872 5873 5874 5875 5875 5876 5876 5877 5877 5878 5878 5878 5878 5879 5879 5879 5879 5879 5880
5812 5813 5815 5817 5818 5818 5819 5819 5818 5818 5818 5819 5821 5823 5824 5826 5827 5829 5831 5832 5832 5834 5835 5835 5836 5837 5838 5839 5840 5841 5842 5843 5844 5845 5846 5847 5848 5848 5849 5850 5851 5852 5852 5853 5854 5854 5854 5855 5856 5856 5857 5857 5858 5858 5860 5861 5862 5863 5864 5865 5866 5866 5867 5868 5868 5869 5870 5871 5872 5873 5874 5874 5875 5875 5876 5876 5876 5877 5877 5877 5877 5878 5878 5878 5878
5809 5811 5812 5814 5815 5815 5816 5816 5815 5816 5816 5816 5819 5821 5821 5823 5824 5826 5828 5829 5829 5831 5832 5833 5834 5834 5835 5836 5837 5838 5839 5840 5842 5842 5843 5844 5845 5846 5847 5847 5848 5849 5850 5851 5851 5852 5853 5854 5854 5854 5855 5855 5856 5856 5858 5859 5860 5861 5862 5863 5864 5865 5866 5866 5867 5868 5869 5870 5870 5871 5872 5873 5873 5874 5874 5875 5875 5875 5876 5876 5876 5876 5876 5877 5877
5806 5808 5810 5811 5812 5811 5812 5813 5813 5813 5814 5815 5817 5818 5818 5819 5821 5823 5824 5825 5826 5827 5829 5830 5831 5831 5832 5833 5834 5835 5837 5838 5839 5840 5841 5842 5843 5844 5844 5845 5846 5847 5848 5848 5849 5850 5850 5851 5852 5852 5853 5853 5854 5855 5856 5857 5858 5859 5860 5861 5862 5863 5864 5865 5866 5867 5867 5868 5868 5869 5870 5871 5871 5872 5872 5873 5873 5874 5874 5874 5874 5875 5875 5875 5875
5803 5805 5806 5808 5809 5808 5809 5810 5811 5811 5811 5812 5814 5815 5815 5816 5818 5819 5821 5822 5823 5824 5825 5827 5828 5828 5829 5830 5831 5832 5833 5835 5836 5837 5838 5839 5840 5841 5842 5843 5843 5844 5845 5846 5847 5847 5848 5849 5850 5850 5851 5851 5852 5853 5854 5855 5856 5857 5858 5859 5860 5861 5862 5863 5864 5865 5865 5866 5867 5867 5868 5868 5869 5870 5870 5871 5871 5872 5872 5872 5872 5873 5873 5873 5873
5799 5801 5803 5804 5805 5806 5807 5807 5808 5809 5809 5810 5811 5812 5813 5813 5815 5816 5818 5819 5820 5821 5822 5824 5825 5826 5827 5827 5828 5829 5830 5831 5833 5834 5835 5836 5837 5838 5839 5840 5841 5842 5842 5843 5844 5845 5846 5847 5848 5848 5848 5849 5850 5851 5852 5853 5853 5855 5856 5857 5858 5859 5860 5861 5862 5862 5863 5864 5864 5865 5865 5866 5867 5868 5868 5869 5869 5870 5870 5870 5871 5871 5871 5871 5872
5794 5796 5799 5801 5802 5803 5804 5805 5806 5806 5806 5807 5808 5809 5810 5811 5812 5813 5814 5815 5817 5818 5819 5820 5822 5823 5824 5825 5825 5826 5827 5828 5830 5831 5831 5833 5834 5835 5836 5837 5838 5839 5840 5840 5841 5842 5843 5844 5845 5846 5846 5847 5847 5848 5849 5850 5851 5852 5853 5854 5856 5856 5857 5858 5859 5860 5861 5862 5862 5862 5863 5864 5865 5865 5866 5866 5867 5867 5868 5868 5868 5869 5869 5869 5869
5789 5791 5794 5796 5798 5799 5801 5802 5803 5804 5804 5804 5805 5807 5808 5808 5809 5810 5811 5812 5813 5814 5816 5817 5819 5820 5821 5822 5823 5823 5824 5825 5826 5827 5828 5829 5831 5832 5833 5834 5835 5836 5837 5838 5838 5839 5840 5841 5842 5843 5844 5844 5845 5846 5847 5848 5849 5849 5851 5852 5853 5854 5855 5856 5857 5857 5858 5859 5859 5860 5861 5861 5862 5863 5863 5864 5865 5865 5865 5866 5866 5866 5867 5867 5867
5784 5787 5789 5791 5793 5794 5797 5800 5801 5801 5801 5802 5803 5804 5805 5805 5806 5807 5808 5809 5810 5811 5812 5813 5815 5817 5818 5819 5820 5820 5821 5822 5823 5824 5825 5826 5827 5828 5830 5831 5832 5833 5834 5835 5835 5836 5837 5838 5839 5840 5841 5842 5842 5843 5844 5845 5846 5847 5848 5849 5850 5851 5852 5853 5854 5854 5855 5856 5857 5858 5858 5859 5860 5860 5861 5861 5862 5862 5862 5863 5863 5864 5864 5864 5865
5779 5782 5784 5787 5789 5790 5793 5796 5797 5798 5799 5799 5800 5800 5801 5802 5802 5803 5804 5806 5806 5807 5809 5810 5812 5814 5815 5816 5816 5817 5818 5819 5820 5821 5822 5823 5823 5825 5826 5827 5829 5830 5831 5831 5832 5833 5834 5835 5836 5837 5838 5839 5839 5840 5841 5842 5843 5844 5845 5846 5847 5848 5849 5850 5851 5851 5852 5853 5854 5855 5856 5856 5857 5858 5858 5858 5859 5859 5860 5860 5861 5861 5862 5862 5862
5775 5777 5779 5782 5784 5785 5788 5790 5792 5795 5795 5795 5796 5796 5798 5799 5799 5800 5801 5802 5803 5804 5805 5807 5808 5810 5811 5812 5813 5814 5815 5816 5817 5818 5819 5820 5820 5821 5823 5824 5825 5827 5828 5829 5829 5830 5831 5832 5833 5834 5835 5835 5836 5837 5838 5839 5840 5841 5842 5843 5844 5845 5846 5847 5848 5848 5849 5850 5851 5852 5853 5854 5854 5855 5855 5855 5856 5856 5857 5857 5858 5858 5859 5859 5859
5770 5772 5773 5776 5778 5781 5783 5785 5787 5790 5791 5791 5791 5792 5794 5795 5796 5797 5797 5799 5799 5800 5802 5803 5805 5806 5807 5808 5809 5811 5812 5813 5814 5815 5816 5816 5817 5817 5819 5820 5821 5823 5824 5825 5826 5827 5828 5829 5829 5831 5831 5831 5832 5833 5834 5836 5837 5838 5839 5840 5841 5842 5843 5844 5845 5845 5846 5847 5848 5848 5849 5850 5851 5851 5852 5852 5853 5853 5854 5854 5855 5855 5856 5856 5856
5765 5767 5769 5770 5773 5775 5778 5780 5782 5785 5786 5787 5787 5788 5790 5791 5792 5793 5794 5795 5796 5797 5798 5800 5801 5802 5803 5804 5806 5807 5808 5810 5811 5812 5812 5813 5813 5814 5815 5816 5817 5819 5820 5822 5823 5824 5825 5825 5826 5827 5827 5828 5829 5830 5831 5832 5833 5835 5836 5837 5838 5839 5840 5841 5841 5842 5843 5844 5844 5845 5846 5847 5847 5848 5848 5849 5850 5850 5851 5851 5851 5852 5852 5853 5853
5760 5762 5764 5766 5767 5769 5772 5775 5777 5779 5781 5783 5783 5784 5785 5787 5788 5789 5790 5791 5792 5793 5794 5796 5797 5798 5799 5800 5802 5803 5805 5806 5807 5808 5808 5809 5810 5810 5811 5812 5814 5815 5817 5818 5819 5820 5821 5822 5823 5823 5824 5825 5825 5826 5827 5828 5829 5831 5832 5833 5834 5835 5836 5837 5838 5838 5839 5840 5841 5841 5842 5843 5844 5844 5845 5845 5846 5847 5847 5847 5848 5848 5849 5849 5849
5755 5757 5759 5761 5762 5764 5766 5769 5772 5773 5775 5777 5779 5780 5782 5783 5784 5785 5786 5787 5788 5790 5791 5791 5793 5794 5795 5796 5798 5800 5801 5802 5803 5804 5804 5805 5806 5806 5807 5808 5810 5811 5813 5814 5815 5816 5817 5818 5819 5820 5820 5821 5822 5822 5823 5824 5826 5827 5829 5830 5830 5831 5832 5833 5834 5835 5836 5836 5837 5838 5838 5839 5840 5840 5841 5842 5842 5843 5843 5844 5844 5845 5845 5845 5846
5750 5752 5754 5756 5757 5759 5761 5763 5766 5768 5769 5771 5774 5777 5779 5779 5780 5781 5782 5783 5784 5786 5787 5787 5788 5789 5790 5791 5793 5795 5797 5798 5798 5799 5801 5802 5802 5803 5804 5804 5805 5807 5809 5810 5811 5812 5813 5814 5815 5816 5817 5817 5818 5818 5819 5820 5821 5823 5825 5826 5826 5827 5828 5829 5830 5831 5832 5833 5833 5834 5834 5835 5835 5836 5837 5838 5838 5839 5840 5840 5841 5841 5841 5842 5842
5745 5747 5748 5750 5752 5754 5755 5757 5760 5762 5763 5766 5769 5772 5775 5775 5776 5777 5779 5780 5781 5782 5782 5783 5784 5785 5785 5786 5788 5790 5792 5793 5794 5795 5796 5798 5798 5799 5799 5800 5801 5802 5804 5806 5807 5807 5808 5809 5810 5812 5813 5813 5814 5814 5816 5817 5818 5819 5821 5822 5823 5823 5824 5825 5825 5826 5827 5829 5829 5830 5830 5830 5831 5832 5833 5834 5834 5835 5836 5836 5837 5837 5837 5838 5838
5740 5741 5743 5745 5746 5748 5750 5752 5754 5757 5759 5761 5764 5767 5769 5770 5770 5772 5775 5776 5777 5779 5778 5778 5779 5780 5781 5782 5784 5785 5787 5788 5789 5790 5792 5793 5794 5794 5795 5796 5797 5798 5799 5801 5802 5803 5803 5804 5805 5807 5808 5809 5810 5811 5812 5813 5814 5815 5816 5817 5818 5819 5820 5820 5821 5822 5823 5824 5825 5826 5826 5826 5827 5828 5829 5829 5830 5831 5831 5832 5832 5833 5833 5834 5834
5735 5736 5737 5739 5741 5742 5744 5746 5748 5750 5753 5755 5758 5760 5763 5764 5766 5767 5770 5771 5772 5774 5774 5773 5775 5776 5777 5779 5780 5781 5782 5783 5785 5786 5787 5788 5789 5789 5790 5791 5792 5793 5794 5796 5797 5798 5799 5800 5801 5802 5803 5804 5805 5807 5808 5808 5809 5810 5811 5812 5813 5814 5815 5815 5817 5818 5819 5820 5820 5821 5821 5822 5822 5823 5824 5825 5826 5826 5827 5827 5828 5828 5829 5830 5830
5730 5731 5732 5733 5735 5737 5738 5740 5742 5744 5747 5749 5752 5754 5756 5759 5761 5762 5765 5766 5767 5769 5770 5769 5771 5773 5773 5775 5776 5777 5777 5779 5780 5782 5782 5783 5784 5785 5786 5787 5787 5788 5789 5790 5791 5793 5795 5796 5797 5797 5798 5799 5801 5802 5802 5804 5805 5805 5807 5807 5808 5808 5809 5811 5812 5813 5814 5815 5816 5817 5817 5817 5818 5819 5820 5821 5821 5822 5822 5823 5823 5824 5825 5825 5826
5725 5726 5727 5728 5730 5731 5733 5734 5736 5738 5740 5743 5746 5748 5750 5752 5755 5757 5759 5761 5761 5763 5765 5765 5766 5768 5769 5771 5772 5773 5773 5774 5776 5777 5778 5779 5779 5780 5781 5782 5782 5782 5783 5785 5786 5788 5790 5791 5792 5793 5794 5795 5796 5797 5798 5799 5800 5801 5802 5802 5803 5803 5803 5805 5807 5808 5809 5810 5811 5812 5813 5813 5814 5815 5815 5816 5817 5817 5818 5818 5819 5820 5820 5821 5821
5720 5721 5722 5723 5724 5725 5727 5729 5731 5733 5735 5737 5740 5742 5744 5746 5749 5751 5753 5755 5756 5757 5758 5760 5761 5763 5765 5766 5767 5767 5768 5769 5771 5772 5773 5774 5775 5775 5776 5776 5777 5777 5778 5779 5781 5783 5784 5786 5787 5787 5789 5790 5791 5792 5793 5794 5795 5796 5796 5797 5797 5798 5798 5800 5801 5802 5803 5804 5806 5807 5809 5810 5810 5810 5811 5812 5812 5813 5814 5814 5815 5815 5816 5816 5816
5715 5716 5717 5718 5719 5720 5721 5723 5725 5727 5729 5731 5734 5736 5738 5740 5742 5744 5746 5748 5750 5751 5752 5754 5755 5757 5760 5761 5762 5762 5763 5764 5765 5766 5766 5768 5769 5769 5769 5770 5771 5771 5773 5774 5775 5777 5779 5780 5781 5782 5783 5785 5786 5787 5788 5789 5790 5791 5791 5791 5792 5792 5793 5795 5796 5797 5798 5799 5801 5802 5803 5805 5805 5805 5806 5807 5808 5808 5809 5810 5811 5811 5811 5811 5811
5710 5711 5712 5713 5714 5715 5716 5717 5719 5721 5723 5725 5728 5730 5732 5734 5736 5738 5740 5742 5743 5744 5746 5748 5749 5751 5753 5755 5757 5758 5758 5758 5760 5759 5759 5761 5763 5763 5764 5764 5765 5765 5766 5768 5769 5770 5772 5774 5775 5776 5778 5779 5780 5782 5783 5784 5784 5785 5785 5786 5787 5787 5788 5789 5790 5791 5793 5795 5796 5796 5797 5799 5800 5801 5801 5802 5803 5803 5804 5805 5806 5806 5807 5806 5806
5705 5706 5707 5708 5709 5709 5711 5712 5713 5715 5717 5719 5721 5724 5726 5728 5729 5731 5733 5735 5736 5738 5740 5742 5743 5744 5746 5749 5751 5752 5752 5753 5755 5754 5754 5755 5756 5758 5759 5759 5759 5759 5759 5760 5762 5764 5765 5767 5769 5770 5771 5773 5774 5776 5777 5778 5778 5778 5779 5780 5781 5781 5783 5784 5785 5786 5788 5789 5790 5791 5792 5793 5795 5796 5797 5798 5798 5799 5799 5799 5800 5801 5801 5801 5801
5699 5701 5702 5703 5704 5704 5706 5707 5708 5709 5711 5713 5715 5718 5720 5721 5722 5724 5726 5728 5730 5732 5733 5736 5738 5739 5740 5743 5744 5745 5747 5748 5749 5748 5748 5749 5750 5750 5752 5753 5754 5753 5753 5754 5756 5758 5759 5761 5763 5764 5765 5766 5768 5770 5771 5771 5772 5772 5773 5774 5775 5776 5778 5779 5779 5780 5782 5783 5784 5785 5786 5788 5789 5791 5792 5792 5793 5793 5794 5794 5795 5795 5796 5796 5796
5694 5695 5696 5698 5699 5700 5700 5701 5702 5704 5705 5707 5709 5711 5713 5715 5715 5716 5719 5721 5723 5726 5727 5730 5732 5733 5734 5736 5737 5738 5740 5742 5742 5741 5742 5743 5744 5744 5745 5747 5748 5748 5748 5748 5750 5751 5753 5755 5757 5758 5759 5760 5762 5764 5765 5765 5765 5766 5767 5769 5770 5771 5771 5772 5773 5774 5776 5777 5778 5779 5780 5782 5783 5785 5786 5786 5787 5788 5788 5789 5789 5790 5790 5791 5791
5688 5689 5690 5692 5693 5694 5695 5696 5697 5698 5699 5701 5703 5705 5706 5708 5709 5709 5711 5714 5717 5719 5721 5723 5724 5726 5727 5727 5729 5731 5733 5735 5736 5735 5736 5737 5738 5739 5739 5740 5742 5743 5743 5743 5743 5744 5746 5748 5750 5751 5752 5754 5756 5758 5758 5758 5759 5761 5762 5762 5763 5763 5764 5765 5767 5769 5771 5772 5773 5774 5775 5775 5776 5778 5778 5779 5781 5782 5783 5783 5784 5784 5785 5785 5785
5682 5683 5684 5686 5687 5688 5689 5690 5691 5692 5693 5695 5696 5698 5700 5701 5702 5702 5704 5707 5710 5711 5713 5716 5717 5718 5718 5719 5721 5724 5727 5729 5731 5731 5731 5731 5732 5732 5733 5734 5735 5737 5738 5738 5737 5738 5740 5742 5743 5744 5746 5748 5750 5752 5752 5753 5754 5755 5755 5754 5756 5757 5758 5760 5761 5764 5766 5766 5767 5767 5768 5769 5770 5771 5772 5773 5775 5776 5777 5778 5778 5778 5779 5779 5778
5676 5677 5678 5679 5680 5681 5682 5683 5685 5686 5687 5688 5689 5691 5693 5694 5696 5697 5697 5699 5702 5704 5705 5707 5710 5710 5709 5711 5714 5717 5720 5723 5725 5726 5726 5726 5726 5726 5727 5729 5730 5731 5732 5732 5732 5733 5735 5736 5737 5738 5740 5742 5743 5745 5746 5748 5748 5748 5747 5749 5751 5751 5752 5754 5756 5757 5758 5758 5759 5760 5761 5762 5764 5765 5767 5768 5769 5770 5771 5771 5772 5772 5772 5772 5772
5670 5671 5672 5673 5674 5675 5676 5677 5678 5679 5680 5682 5683 5684 5686 5687 5689 5690 5691 5692 5694 5697 5698 5699 5701 5703 5702 5703 5706 5709 5711 5714 5717 5719 5720 5720 5721 5721 5722 5723 5724 5725 5726 5727 5727 5728 5729 5730 5731 5732 5734 5735 5737 5738 5740 5741 5741 5741 5742 5743 5743 5743 5744 5747 5748 5749 5749 5750 5752 5754 5755 5757 5758 5760 5761 5762 5763 5763 5764 5765 5765 5766 5766 5766 5766
5664 5665 5666 5667 5668 5669 5670 5670 5671 5672 5673 5674 5676 5677 5679 5680 5681 5682 5684 5686 5687 5689 5691 5691 5692 5695 5696 5696 5698 5700 5702 5705 5708 5710 5712 5713 5714 5715 5716 5717 5718 5719 5720 5720 5721 5722 5723 5724 5725 5726 5727 5729 5730 5732 5734 5735 5735 5736 5736 5736 5735 5735 5736 5738 5740 5741 5742 5743 5746 5747 5749 5751 5752 5752 5754 5755 5757 5757 5758 5759 5759 5759 5760 5759 5759
5658 5659 5660 5661 5662 5663 5663 5664 5665 5666 5667 5667 5669 5670 5671 5673 5674 5675 5676 5678 5680 5682 5683 5684 5684 5686 5689 5690 5690 5691 5693 5695 5699 5702 5705 5706 5708 5709 5710 5711 5712 5712 5713 5714 5715 5716 5717 5718 5720 5720 5721 5723 5724 5726 5728 5729 5730 5731 5730 5729 5729 5729 5729 5730 5732 5733 5735 5737 5740 5741 5742 5743 5744 5745 5746 5748 5750 5751 5751 5752 5752 5753 5753 5753 5753
5652 5653 5654 5655 5656 5657 5657 5658 5658 5659 5660 5661 5662 5663 5664 5665 5666 5668 5668 5669 5671 5674 5676 5676 5677 5678 5680 5682 5683 5684 5685 5687 5689 5693 5696 5698 5700 5702 5703 5704 5705 5706 5706 5707 5709 5710 5711 5713 5714 5715 5715 5717 5718 5719 5721 5722 5724 5725 5724 5723 5723 5723 5723 5723 5723 5725 5728 5730 5732 5733 5734 5735 5736 5737 5739 5740 5742 5743 5744 5745 5746 5746 5747 5747 5747
5645 5646 5647 5648 5649 5650 5651 5652 5652 5653 5653 5654 5655 5656 5657 5658 5659 5660 5661 5661 5662 5665 5668 5668 5669 5670 5672 5673 5675 5677 5678 5679 5681 5684 5687 5690 5692 5694 5696 5697 5698 5699 5700 5700 5701 5703 5704 5705 5707 5709 5709 5710 5711 5712 5714 5716 5717 5718 5718 5717 5717 5717 5717 5717 5716 5717 5720 5722 5723 5724 5725 5727 5729 5730 5731 5732 5734 5735 5736 5738 5738 5739 5740 5740 5740
5638 5639 5640 5641 5642 5643 5644 5645 5646 5646 5647 5648 5648 5649 5650 5650 5651 5652 5654 5654 5655 5656 5659 5661 5660 5662 5664 5665 5667 5668 5670 5671 5673 5675 5678 5681 5683 5685 5687 5689 5690 5692 5693 5694 5694 5695 5697 5698 5699 5701 5703 5704 5705 5706 5707 5709 5710 5711 5711 5711 5711 5711 5711 5711 5711 5711 5712 5713 5715 5716 5717 5719 5721 5723 5724 5726 5727 5729 5730 5731 5732 5732 5733 5733 5734
5631 5632 5633 5634 5635 5636 5637 5638 5639 5640 5641 5641 5642 5642 5643 5644 5644 5645 5646 5647 5648 5648 5650 5652 5653 5653 5655 5657 5659 5660 5661 5663 5665 5667 5669 5672 5674 5676 5678 5680 5682 5684 5685 5686 5687 5688 5689 5690 5691 5693 5695 5697 5698 5699 5700 5702 5703 5704 5704 5704 5704 5705 5705 5705 5706 5705 5705 5705 5706 5708 5710 5711 5712 5714 5717 5719 5720 5721 5723 5724 5724 5725 5726 5726 5727